sat.trackr.live / text

‹ back to catalog

STARLINK-35984

NORAD 66814 · 2025-278Z

PAYLOAD ACTIVE UNKNOWN

§ Identity

Operator
Country
US
Launch date
2025-12-01
Launch site
AFETR
Launch vehicle
Mass (kg)
RCS (m²)

Purposes: comms

External: N2YO · Heavens-Above · Gunter

§ Orbital elements

Epoch: 2026-05-25T01:39:40.613184Z

Period
94.27 min
Inclination
43.0011°
Eccentricity
0.0001478
Mean motion
15.27590519 rev/d
Perigee alt
482.0 km
Apogee alt
484.0 km
Semi-major
6,861.2 km
B*
4.9880e-4
RAAN
42.7259°
Arg perigee
282.9504°
Mean anomaly
77.1182°
Rev number
2,689

§ Raw data

STARLINK-359841 66814U 25278Z   26145.06922006  .00013493  00000+0  49880-3 0  99932 66814  43.0011  42.7259 0001478 282.9504  77.1182 15.27590519 26890

JSON: /api/v1/satellites/66814 · /tle

For live sub-satellite position, see the globe view (requires WebGL).

§ Visibility from observer

Set your observer location to see the next 7 days of passes ≥ 10°. The values pass through the URL so the page stays shareable.

No JS? Fill the form by hand. The geolocation button needs JavaScript.